ProjectID,Date,Electric Generation,Electric Utility Import,Facility Electric Load
,YYYY-MM-DD,kW,kW,kW
343,2016-06-01,0.0,,0.0
343,2016-06-02,0.0,,0.0
343,2016-06-03,0.0,,0.0
343,2016-06-04,0.0,,0.0
343,2016-06-05,0.0,,0.0
343,2016-06-06,0.0,,0.0
343,2016-06-07,0.0,,0.0
343,2016-06-08,15.799999999999999,,15.799999999999999
343,2016-06-09,36.50999999999999,,36.50999999999999
343,2016-06-10,35.525,,35.525
343,2016-06-11,26.21249999999999,,26.21249999999999
343,2016-06-12,34.512499999999996,,34.512499999999996
343,2016-06-13,26.185000000000002,,26.185000000000002
343,2016-06-14,35.85999999999999,,35.85999999999999
343,2016-06-15,34.114999999999995,,34.114999999999995
343,2016-06-16,10.197500000000002,,10.197500000000002
343,2016-06-17,29.09,,29.09
343,2016-06-18,33.07999999999999,,33.07999999999999
343,2016-06-19,32.45249999999999,,32.45249999999999
343,2016-06-20,32.93999999999999,,32.93999999999999
343,2016-06-21,27.547499999999996,,27.547499999999996
343,2016-06-22,32.334999999999994,,32.334999999999994
343,2016-06-23,15.117499999999998,,15.117499999999998
343,2016-06-24,32.8475,,32.8475
343,2016-06-25,33.175000000000004,,33.175000000000004
343,2016-06-26,31.845000000000002,,31.845000000000002
343,2016-06-27,24.164999999999996,,24.164999999999996
343,2016-06-28,8.7,,8.7
343,2016-06-29,28.9675,,28.9675
343,2016-06-30,33.72499999999999,,33.72499999999999
343,2016-07-01,18.570000000000004,,18.570000000000004
343,2016-07-02,30.717500000000005,,30.717500000000005
343,2016-07-03,22.715,,22.715
343,2016-07-04,31.579999999999988,,31.579999999999988
343,2016-07-05,21.102500000000003,,21.102500000000003
343,2016-07-06,30.37,,30.37
343,2016-07-07,23.0775,,23.0775
343,2016-07-08,26.317499999999995,,26.317499999999995
343,2016-07-09,10.719999999999999,,10.719999999999999
343,2016-07-10,22.862499999999986,,22.862499999999986
343,2016-07-11,27.232499999999987,,27.232499999999987
343,2016-07-12,32.53499999999999,,32.53499999999999
343,2016-07-13,22.324999999999992,,22.324999999999992
343,2016-07-14,21.62,,21.62
343,2016-07-15,21.1025,,21.1025
343,2016-07-16,23.727500000000003,,23.727500000000003
343,2016-07-17,27.950000000000003,,27.950000000000003
343,2016-07-18,19.4375,,19.4375
343,2016-07-19,32.67999999999999,,32.67999999999999
343,2016-07-20,32.762499999999996,,32.762499999999996
343,2016-07-21,31.802499999999995,,31.802499999999995
343,2016-07-22,29.9825,,29.9825
343,2016-07-23,28.667500000000004,,28.667500000000004
343,2016-07-24,29.099999999999998,,29.099999999999998
343,2016-07-25,24.18499999999999,,24.18499999999999
343,2016-07-26,30.692499999999985,,30.692499999999985
343,2016-07-27,30.3725,,30.3725
343,2016-07-28,21.215,,21.215
343,2016-07-29,22.419999999999998,,22.419999999999998
343,2016-07-30,15.675000000000004,,15.675000000000004
343,2016-07-31,11.707499999999998,,11.707499999999998
343,2016-08-01,14.247499999999997,,14.247499999999997
343,2016-08-02,21.142500000000005,,21.142500000000005
343,2016-08-03,32.5575,,32.5575
343,2016-08-04,31.949999999999992,,31.949999999999992
343,2016-08-05,30.3275,,30.3275
343,2016-08-06,18.907500000000002,,18.907500000000002
343,2016-08-07,30.0475,,30.0475
343,2016-08-08,20.9875,,20.9875
343,2016-08-09,29.837500000000006,,29.837500000000006
343,2016-08-10,12.9825,,12.9825
343,2016-08-11,23.435,,23.435
343,2016-08-12,28.039999999999996,,28.039999999999996
343,2016-08-13,27.822499999999994,,27.822499999999994
343,2016-08-14,28.087500000000006,,28.087500000000006
343,2016-08-15,25.669999999999998,,25.669999999999998
343,2016-08-16,26.93499999999999,,26.93499999999999
343,2016-08-17,28.877499999999994,,28.877499999999994
343,2016-08-18,16.825,,16.825
343,2016-08-19,23.1225,,23.1225
343,2016-08-20,25.950000000000003,,25.950000000000003
343,2016-08-21,22.895,,22.895
343,2016-08-22,31.537499999999998,,31.537499999999998
343,2016-08-23,30.132499999999993,,30.132499999999993
343,2016-08-24,29.18499999999999,,29.18499999999999
343,2016-08-25,24.304999999999993,,24.304999999999993
343,2016-08-26,23.534999999999997,,23.534999999999997
343,2016-08-27,27.314999999999994,,27.314999999999994
343,2016-08-28,27.904999999999998,,27.904999999999998
343,2016-08-29,27.42249999999999,,27.42249999999999
343,2016-08-30,28.27499999999999,,28.27499999999999
343,2016-08-31,20.4275,,20.4275
343,2016-09-01,8.905,,8.905
343,2016-09-02,26.9975,,26.9975
343,2016-09-03,14.955,,14.955
343,2016-09-04,28.054999999999996,,28.054999999999996
343,2016-09-05,19.9375,,19.9375
343,2016-09-06,10.955,,10.955
343,2016-09-07,20.6,,20.6
343,2016-09-08,24.314999999999994,,24.314999999999994
343,2016-09-09,17.775000000000002,,17.775000000000002
343,2016-09-10,23.5275,,23.5275
343,2016-09-11,21.185,,21.185
343,2016-09-12,24.1425,,24.1425
343,2016-09-13,26.25999999999999,,26.25999999999999
343,2016-09-14,25.144999999999996,,25.144999999999996
343,2016-09-15,27.512499999999992,,27.512499999999992
343,2016-09-16,20.2625,,20.2625
343,2016-09-17,24.059999999999985,,24.059999999999985
343,2016-09-18,13.285000000000002,,13.285000000000002
343,2016-09-19,3.1700000000000004,,3.1700000000000004
343,2016-09-20,13.83,,13.83
343,2016-09-21,15.692500000000003,,15.692500000000003
343,2016-09-22,19.857499999999998,,19.857499999999998
343,2016-09-23,20.172500000000003,,20.172500000000003
343,2016-09-24,16.5125,,16.5125
343,2016-09-25,21.979999999999993,,21.979999999999993
343,2016-09-26,16.990000000000002,,16.990000000000002
343,2016-09-27,14.3825,,14.3825
343,2016-09-28,9.2175,,9.2175
343,2016-09-29,4.085000000000001,,4.085000000000001
343,2016-09-30,3.74,,3.74
343,2016-10-01,3.94,,3.94
343,2016-10-02,5.197500000000001,,5.197500000000001
343,2016-10-03,9.535,,9.535
343,2016-10-04,6.397500000000001,,6.397500000000001
343,2016-10-05,13.247499999999997,,13.247499999999997
343,2016-10-06,15.8175,,15.8175
343,2016-10-07,18.2725,,18.2725
343,2016-10-08,5.142500000000001,,5.142500000000001
343,2016-10-09,2.06,,2.06
343,2016-10-10,19.2225,,19.2225
343,2016-10-11,22.14749999999999,,22.14749999999999
343,2016-10-12,12.325000000000001,,12.325000000000001
343,2016-10-13,8.360000000000001,,8.360000000000001
343,2016-10-14,18.492500000000003,,18.492500000000003
343,2016-10-15,17.405,,17.405
343,2016-10-16,12.63,,12.63
343,2016-10-17,13.942500000000003,,13.942500000000003
343,2016-10-18,18.005000000000003,,18.005000000000003
343,2016-10-19,13.832500000000001,,13.832500000000001
343,2016-10-20,6.937500000000001,,6.937500000000001
343,2016-10-21,3.3375000000000004,,3.3375000000000004
343,2016-10-22,3.19,,3.19
343,2016-10-23,11.3975,,11.3975
343,2016-10-24,9.819999999999999,,9.819999999999999
343,2016-10-25,7.4075,,7.4075
343,2016-10-26,12.982500000000002,,12.982500000000002
343,2016-10-27,1.1324999999999996,,1.1324999999999996
343,2016-10-28,7.382500000000001,,7.382500000000001
343,2016-10-29,8.867500000000001,,8.867500000000001
343,2016-10-30,9.5,,9.5
343,2016-10-31,11.485000000000001,,11.485000000000001
343,2016-11-01,13.367500000000001,,13.367500000000001
343,2016-11-02,9.650000000000002,,9.650000000000002
343,2016-11-03,5.14,,5.14
343,2016-11-04,9.3925,,9.3925
343,2016-11-05,10.0325,,10.0325
343,2016-11-06,8.430000000000001,,8.430000000000001
343,2016-11-07,10.395000000000001,,10.395000000000001
343,2016-11-08,9.607500000000002,,9.607500000000002
343,2016-11-09,1.6174999999999997,,1.6174999999999997
343,2016-11-10,9.44,,9.44
343,2016-11-11,9.662500000000001,,9.662500000000001
343,2016-11-12,10.105000000000002,,10.105000000000002
343,2016-11-13,10.215000000000002,,10.215000000000002
343,2016-11-14,8.302500000000002,,8.302500000000002
343,2016-11-15,0.725,,0.725
343,2016-11-16,8.617500000000001,,8.617500000000001
343,2016-11-17,8.6625,,8.6625
343,2016-11-18,8.295000000000002,,8.295000000000002
343,2016-11-19,8.045,,8.045
343,2016-11-20,3.3000000000000007,,3.3000000000000007
343,2016-11-21,2.64,,2.64
343,2016-11-22,8.285000000000002,,8.285000000000002
343,2016-11-23,8.990000000000002,,8.990000000000002
343,2016-11-24,2.8625000000000007,,2.8625000000000007
343,2016-11-25,3.582500000000001,,3.582500000000001
343,2016-11-26,5.77,,5.77
343,2016-11-27,7.2,,7.2
343,2016-11-28,8.150000000000002,,8.150000000000002
343,2016-11-29,0.2925,,0.2925
343,2016-11-30,1.0349999999999997,,1.0349999999999997
343,2016-12-01,6.615000000000001,,6.615000000000001
343,2016-12-02,6.882500000000001,,6.882500000000001
343,2016-12-03,6.79,,6.79
343,2016-12-04,7.575,,7.575
343,2016-12-05,5.995000000000001,,5.995000000000001
343,2016-12-06,3.5825000000000014,,3.5825000000000014
343,2016-12-07,1.7149999999999996,,1.7149999999999996
343,2016-12-08,2.897500000000001,,2.897500000000001
343,2016-12-09,6.747500000000002,,6.747500000000002
343,2016-12-10,5.3475,,5.3475
343,2016-12-11,4.652500000000001,,4.652500000000001
343,2016-12-12,1.6425,,1.6425
343,2016-12-13,5.482500000000001,,5.482500000000001
343,2016-12-14,8.577500000000002,,8.577500000000002
343,2016-12-15,4.97,,4.97
343,2016-12-16,6.102500000000002,,6.102500000000002
343,2016-12-17,0.07000000000000002,,0.07000000000000002
343,2016-12-18,0.9874999999999998,,0.9874999999999998
343,2016-12-19,7.285,,7.285
343,2016-12-20,7.345,,7.345
343,2016-12-21,4.1000000000000005,,4.1000000000000005
343,2016-12-22,3.9875000000000003,,3.9875000000000003
343,2016-12-23,8.0875,,8.0875
343,2016-12-24,1.2025,,1.2025
343,2016-12-25,7.12,,7.12
343,2016-12-26,1.6349999999999991,,1.6349999999999991
343,2016-12-27,3.9,,3.9
343,2016-12-28,3.167500000000001,,3.167500000000001
343,2016-12-29,0.41750000000000004,,0.41750000000000004
343,2016-12-30,4.785000000000001,,4.785000000000001
343,2016-12-31,4.9325,,4.9325
343,2017-01-01,7.2925,,7.2925
343,2017-01-02,1.2975,,1.2975
343,2017-01-03,0.7699999999999997,,0.7699999999999997
343,2017-01-04,3.8875000000000006,,3.8875000000000006
343,2017-01-05,4.995,,4.995
343,2017-01-06,3.0725000000000002,,3.0725000000000002
343,2017-01-07,0.12500000000000003,,0.12500000000000003
343,2017-01-08,0.10000000000000002,,0.10000000000000002
343,2017-01-09,1.0099999999999998,,1.0099999999999998
343,2017-01-10,1.4425000000000006,,1.4425000000000006
343,2017-01-11,6.7575,,6.7575
343,2017-01-12,5.385000000000001,,5.385000000000001
343,2017-01-13,7.752500000000001,,7.752500000000001
343,2017-01-14,3.8975000000000013,,3.8975000000000013
343,2017-01-15,1.5875000000000001,,1.5875000000000001
343,2017-01-16,8.490000000000002,,8.490000000000002
343,2017-01-17,0.8825,,0.8825
343,2017-01-18,0.9624999999999999,,0.9624999999999999
343,2017-01-19,7.522500000000002,,7.522500000000002
343,2017-01-20,2.3850000000000002,,2.3850000000000002
343,2017-01-21,3.565,,3.565
343,2017-01-22,2.4050000000000002,,2.4050000000000002
343,2017-01-23,1.0775,,1.0775
343,2017-01-24,1.2650000000000001,,1.2650000000000001
343,2017-01-25,9.072500000000002,,9.072500000000002
343,2017-01-26,3.7875000000000014,,3.7875000000000014
343,2017-01-27,3.3225000000000002,,3.3225000000000002
343,2017-01-28,2.8900000000000006,,2.8900000000000006
343,2017-01-29,8.76,,8.76
343,2017-01-30,6.7250000000000005,,6.7250000000000005
343,2017-01-31,0.8775,,0.8775
343,2017-02-01,4.802499999999999,,4.802499999999999
343,2017-02-02,7.307500000000002,,7.307500000000002
343,2017-02-03,8.720000000000002,,8.720000000000002
343,2017-02-04,11.227500000000001,,11.227500000000001
343,2017-02-05,4.1975,,4.1975
343,2017-02-06,10.627500000000001,,10.627500000000001
343,2017-02-07,1.4725000000000001,,1.4725000000000001
343,2017-02-08,8.127500000000001,,8.127500000000001
343,2017-02-09,0.11750000000000003,,0.11750000000000003
343,2017-02-10,4.6499999999999995,,4.6499999999999995
343,2017-02-11,3.8074999999999997,,3.8074999999999997
343,2017-02-12,0.3425,,0.3425
343,2017-02-13,7.785000000000003,,7.785000000000003
343,2017-02-14,7.805000000000001,,7.805000000000001
343,2017-02-15,7.387500000000002,,7.387500000000002
343,2017-02-16,11.96,,11.96
343,2017-02-17,12.610000000000005,,12.610000000000005
343,2017-02-18,11.802500000000002,,11.802500000000002
343,2017-02-19,8.9975,,8.9975
343,2017-02-20,12.7875,,12.7875
343,2017-02-21,10.215000000000002,,10.215000000000002
343,2017-02-22,6.485,,6.485
343,2017-02-23,6.867500000000001,,6.867500000000001
343,2017-02-24,11.7275,,11.7275
343,2017-02-25,7.6674999999999995,,7.6674999999999995
343,2017-02-26,12.0525,,12.0525
343,2017-02-27,9.975,,9.975
343,2017-02-28,9.56,,9.56
343,2017-03-01,3.6475000000000004,,3.6475000000000004
343,2017-03-02,14.405,,14.405
343,2017-03-03,11.912500000000003,,11.912500000000003
343,2017-03-04,13.179999999999998,,13.179999999999998
343,2017-03-05,16.1975,,16.1975
343,2017-03-06,13.589999999999998,,13.589999999999998
343,2017-03-07,3.3774999999999995,,3.3774999999999995
343,2017-03-08,12.185,,12.185
343,2017-03-09,14.955,,14.955
343,2017-03-10,0.20999999999999996,,0.20999999999999996
343,2017-03-11,0.6899999999999998,,0.6899999999999998
343,2017-03-12,1.9149999999999994,,1.9149999999999994
343,2017-03-13,11.6425,,11.6425
343,2017-03-14,0.10000000000000002,,0.10000000000000002
343,2017-03-15,0.3799999999999999,,0.3799999999999999
343,2017-03-16,1.2374999999999998,,1.2374999999999998
343,2017-03-17,2.9225000000000008,,2.9225000000000008
343,2017-03-18,1.29,,1.29
343,2017-03-19,11.8775,,11.8775
343,2017-03-20,15.644999999999998,,15.644999999999998
343,2017-03-21,13.424999999999999,,13.424999999999999
343,2017-03-22,17.329999999999995,,17.329999999999995
343,2017-03-23,17.045,,17.045
343,2017-03-24,7.307500000000001,,7.307500000000001
343,2017-03-25,4.8975,,4.8975
343,2017-03-26,3.0275000000000003,,3.0275000000000003
343,2017-03-27,5.465000000000001,,5.465000000000001
343,2017-03-28,2.0875000000000004,,2.0875000000000004
343,2017-03-29,14.2175,,14.2175
343,2017-03-30,12.204999999999998,,12.204999999999998
343,2017-03-31,1.1875000000000002,,1.1875000000000002
343,2017-04-01,6.8450000000000015,,6.8450000000000015
343,2017-04-02,17.0925,,17.0925
343,2017-04-03,14.667499999999999,,14.667499999999999
343,2017-04-04,3.99,,3.99
343,2017-04-05,10.0675,,10.0675
343,2017-04-06,1.5525000000000002,,1.5525000000000002
343,2017-04-07,5.2299999999999995,,5.2299999999999995
343,2017-04-08,18.265000000000004,,18.265000000000004
343,2017-04-09,17.8,,17.8
343,2017-04-10,16.5525,,16.5525
343,2017-04-11,20.2875,,20.2875
343,2017-04-12,11.639999999999999,,11.639999999999999
343,2017-04-13,15.3075,,15.3075
343,2017-04-14,19.56,,19.56
343,2017-04-15,14.270000000000003,,14.270000000000003
343,2017-04-16,19.340000000000003,,19.340000000000003
343,2017-04-17,13.405,,13.405
343,2017-04-18,25.60749999999999,,25.60749999999999
343,2017-04-19,11.422500000000001,,11.422500000000001
343,2017-04-20,16.735,,16.735
343,2017-04-21,5.8475,,5.8475
343,2017-04-22,6.065000000000001,,6.065000000000001
343,2017-04-23,23.012499999999992,,23.012499999999992
343,2017-04-24,9.432500000000003,,9.432500000000003
343,2017-04-25,4.1325,,4.1325
343,2017-04-26,6.0975,,6.0975
343,2017-04-27,15.845,,15.845
343,2017-04-28,25.032499999999995,,25.032499999999995
343,2017-04-29,20.585000000000004,,20.585000000000004
343,2017-04-30,10.264999999999999,,10.264999999999999
343,2017-05-01,16.540000000000003,,16.540000000000003
343,2017-05-02,21.270000000000007,,21.270000000000007
343,2017-05-03,14.585,,14.585
343,2017-05-04,18.2925,,18.2925
343,2017-05-05,1.8074999999999999,,1.8074999999999999
343,2017-05-06,12.132500000000002,,12.132500000000002
343,2017-05-07,7.97,,7.97
343,2017-05-08,16.002499999999998,,16.002499999999998
343,2017-05-09,15.850000000000001,,15.850000000000001
343,2017-05-10,18.357499999999998,,18.357499999999998
343,2017-05-11,13.110000000000001,,13.110000000000001
343,2017-05-12,14.4,,14.4
343,2017-05-13,2.7750000000000004,,2.7750000000000004
343,2017-05-14,16.84,,16.84
343,2017-05-15,16.4325,,16.4325
343,2017-05-16,18.194999999999997,,18.194999999999997
343,2017-05-17,26.6225,,26.6225
343,2017-05-18,23.772499999999997,,23.772499999999997
343,2017-05-19,24.2825,,24.2825
343,2017-05-20,8.9525,,8.9525
343,2017-05-21,26.774999999999995,,26.774999999999995
343,2017-05-22,3.1175,,3.1175
343,2017-05-23,13.495,,13.495
343,2017-05-24,16.485,,16.485
343,2017-05-25,4.245,,4.245
343,2017-05-26,15.0575,,15.0575
343,2017-05-27,16.09,,16.09
343,2017-05-28,15.9075,,15.9075
343,2017-05-29,4.12,,4.12
343,2017-05-30,5.355,,5.355
343,2017-05-31,19.3575,,19.3575
343,2017-06-01,24.159999999999997,,24.159999999999997
343,2017-06-02,23.589999999999993,,23.589999999999993
343,2017-06-03,21.45999999999999,,21.45999999999999
343,2017-06-04,10.912500000000001,,10.912500000000001
343,2017-06-05,10.765,,10.765
343,2017-06-06,4.490000000000001,,4.490000000000001
343,2017-06-07,14.799999999999999,,14.799999999999999
343,2017-06-08,12.540000000000001,,12.540000000000001
343,2017-06-09,20.76,,20.76
343,2017-06-10,23.654999999999998,,23.654999999999998
343,2017-06-11,25.094999999999995,,25.094999999999995
343,2017-06-12,25.064999999999998,,25.064999999999998
343,2017-06-13,24.054999999999996,,24.054999999999996
343,2017-06-14,19.855,,19.855
343,2017-06-15,23.927499999999995,,23.927499999999995
343,2017-06-16,5.9425,,5.9425
343,2017-06-17,8.867500000000001,,8.867500000000001
343,2017-06-18,23.0575,,23.0575
343,2017-06-19,19.0575,,19.0575
343,2017-06-20,26.95,,26.95
343,2017-06-21,21.58,,21.58
343,2017-06-22,25.877499999999994,,25.877499999999994
343,2017-06-23,12.544999999999996,,12.544999999999996
343,2017-06-24,22.962499999999995,,22.962499999999995
343,2017-06-25,19.377499999999998,,19.377499999999998
343,2017-06-26,23.8125,,23.8125
343,2017-06-27,18.577500000000004,,18.577500000000004
343,2017-06-28,24.147499999999997,,24.147499999999997
343,2017-06-29,24.349999999999994,,24.349999999999994
343,2017-06-30,24.16999999999999,,24.16999999999999
343,2017-07-01,18.2125,,18.2125
343,2017-07-02,24.44,,24.44
343,2017-07-03,20.64,,20.64
343,2017-07-04,19.337500000000002,,19.337500000000002
343,2017-07-05,22.784999999999993,,22.784999999999993
343,2017-07-06,13.737500000000002,,13.737500000000002
343,2017-07-07,9.4075,,9.4075
343,2017-07-08,21.687499999999996,,21.687499999999996
343,2017-07-09,22.562499999999996,,22.562499999999996
343,2017-07-10,23.14749999999999,,23.14749999999999
343,2017-07-11,16.205000000000002,,16.205000000000002
343,2017-07-12,20.6025,,20.6025
343,2017-07-13,16.395,,16.395
343,2017-07-14,2.9175,,2.9175
343,2017-07-15,17.25,,17.25
343,2017-07-16,23.34249999999999,,23.34249999999999
343,2017-07-17,20.622500000000006,,20.622500000000006
343,2017-07-18,25.084999999999997,,25.084999999999997
343,2017-07-19,23.81,,23.81
343,2017-07-20,22.615,,22.615
343,2017-07-21,24.109999999999996,,24.109999999999996
343,2017-07-22,20.19,,20.19
343,2017-07-23,12.535000000000002,,12.535000000000002
343,2017-07-24,7.702500000000001,,7.702500000000001
343,2017-07-25,11.424999999999999,,11.424999999999999
343,2017-07-26,26.069999999999997,,26.069999999999997
343,2017-07-27,8.155,,8.155
343,2017-07-28,12.567499999999997,,12.567499999999997
343,2017-07-29,6.8999999999999995,,6.8999999999999995
343,2017-07-30,18.002499999999998,,18.002499999999998
343,2017-07-31,14.99,,14.99
343,2017-08-01,15.625000000000002,,15.625000000000002
343,2017-08-02,8.3025,,8.3025
343,2017-08-03,16.2625,,16.2625
343,2017-08-04,15.539999999999997,,15.539999999999997
343,2017-08-05,10.6125,,10.6125
343,2017-08-06,12.702499999999999,,12.702499999999999
343,2017-08-07,1.8,,1.8
343,2017-08-08,8.600000000000001,,8.600000000000001
343,2017-08-09,15.450000000000001,,15.450000000000001
343,2017-08-10,22.825,,22.825
343,2017-08-11,9.9925,,9.9925
343,2017-08-12,4.477500000000001,,4.477500000000001
343,2017-08-13,22.2675,,22.2675
343,2017-08-14,10.437499999999998,,10.437499999999998
343,2017-08-15,3.855000000000001,,3.855000000000001
343,2017-08-16,15.465000000000002,,15.465000000000002
343,2017-08-17,15.692500000000003,,15.692500000000003
343,2017-08-18,4.565,,4.565
343,2017-08-19,14.87,,14.87
343,2017-08-20,16.687500000000004,,16.687500000000004
343,2017-08-21,11.8775,,11.8775
343,2017-08-22,14.06,,14.06
343,2017-08-23,15.090000000000002,,15.090000000000002
343,2017-08-24,15.090000000000002,,15.090000000000002
343,2017-08-25,10.945000000000002,,10.945000000000002
343,2017-08-26,13.025,,13.025
343,2017-08-27,7.857500000000001,,7.857500000000001
343,2017-08-28,6.407499999999999,,6.407499999999999
343,2017-08-29,1.49,,1.49
343,2017-08-30,9.815,,9.815
343,2017-08-31,11.737499999999999,,11.737499999999999
343,2017-09-01,16.595,,16.595
343,2017-09-02,7.080000000000001,,7.080000000000001
343,2017-09-03,3.4475,,3.4475
343,2017-09-04,9.4875,,9.4875
343,2017-09-05,8.53,,8.53
343,2017-09-06,1.9749999999999999,,1.9749999999999999
343,2017-09-07,8.4975,,8.4975
343,2017-09-08,8.605,,8.605
343,2017-09-09,7.592500000000001,,7.592500000000001
343,2017-09-10,8.7675,,8.7675
343,2017-09-11,8.605000000000002,,8.605000000000002
343,2017-09-12,9.9975,,9.9975
343,2017-09-13,10.6725,,10.6725
343,2017-09-14,6.64,,6.64
343,2017-09-15,7.734999999999999,,7.734999999999999
343,2017-09-16,7.3425,,7.3425
343,2017-09-17,9.819999999999999,,9.819999999999999
343,2017-09-18,2.3550000000000004,,2.3550000000000004
343,2017-09-19,4.1575,,4.1575
343,2017-09-20,7.872500000000001,,7.872500000000001
343,2017-09-21,5.015,,5.015
343,2017-09-22,12.2175,,12.2175
343,2017-09-23,14.149999999999999,,14.149999999999999
343,2017-09-24,12.115000000000002,,12.115000000000002
343,2017-09-25,12.9275,,12.9275
343,2017-09-26,9.202499999999999,,9.202499999999999
343,2017-09-27,8.12,,8.12
343,2017-09-28,13.957500000000001,,13.957500000000001
343,2017-09-29,6.5325,,6.5325
343,2017-09-30,4.04,,4.04
343,2017-10-01,8.217500000000001,,8.217500000000001
343,2017-10-02,8.0375,,8.0375
343,2017-10-03,12.0075,,12.0075
343,2017-10-04,17.95,,17.95
343,2017-10-05,12.8975,,12.8975
343,2017-10-06,13.7975,,13.7975
343,2017-10-07,12.552500000000002,,12.552500000000002
343,2017-10-08,4.155,,4.155
343,2017-10-09,1.9000000000000004,,1.9000000000000004
343,2017-10-10,13.74,,13.74
343,2017-10-11,7.965,,7.965
343,2017-10-12,12.925000000000002,,12.925000000000002
343,2017-10-13,10.624999999999998,,10.624999999999998
343,2017-10-14,8.72,,8.72
343,2017-10-15,7.865000000000001,,7.865000000000001
343,2017-10-16,9.455,,9.455
343,2017-10-17,20.77,,20.77
343,2017-10-18,18.2375,,18.2375
343,2017-10-19,18.655,,18.655
343,2017-10-20,17.087500000000002,,17.087500000000002
343,2017-10-21,15.854999999999999,,15.854999999999999
343,2017-10-22,15.94,,15.94
343,2017-10-23,12.704999999999998,,12.704999999999998
343,2017-10-24,5.0925,,5.0925
343,2017-10-25,6.2075,,6.2075
343,2017-10-26,3.5450000000000013,,3.5450000000000013
343,2017-10-27,17.419999999999998,,17.419999999999998
343,2017-10-28,16.6025,,16.6025
343,2017-10-29,1.2674999999999998,,1.2674999999999998
343,2017-10-30,15.305,,15.305
343,2017-10-31,15.485000000000001,,15.485000000000001
343,2017-11-01,6.3875,,6.3875
343,2017-11-02,11.542499999999999,,11.542499999999999
343,2017-11-03,11.7725,,11.7725
343,2017-11-04,13.9825,,13.9825
343,2017-11-05,2.3850000000000002,,2.3850000000000002
343,2017-11-06,2.94,,2.94
343,2017-11-07,5.7075,,5.7075
343,2017-11-08,8.44,,8.44
343,2017-11-09,12.575000000000001,,12.575000000000001
343,2017-11-10,15.0875,,15.0875
343,2017-11-11,17.625,,17.625
343,2017-11-12,12.884999999999998,,12.884999999999998
343,2017-11-13,4.1850000000000005,,4.1850000000000005
343,2017-11-14,10.785000000000002,,10.785000000000002
343,2017-11-15,13.135,,13.135
343,2017-11-16,8.729999999999999,,8.729999999999999
343,2017-11-17,16.2775,,16.2775
343,2017-11-18,3.5975000000000006,,3.5975000000000006
343,2017-11-19,12.512500000000003,,12.512500000000003
343,2017-11-20,11.355000000000002,,11.355000000000002